Regional Weather Roundup
Issued by NWS

Home | Current Version | Previous Version | Graphics & Text | Print | Product List | Glossary On
Versions: 1 2 3 4 5 6 7 8 9 10 11 12 13 14 15 16 17 18 19 20 21 22 23 24 25 26 27 28 29 30 31 32 33 34 35 36 37 38 39 40 41 42 43 44 45 46 47 48 49 50
000
ASUS43 KMPX 292310
RWRMN
WEATHER ROUNDUP FOR MINNESOTA
NATIONAL WEATHER SERVICE TWIN CITIES/CHANHASSEN MN
600 PM CDT WED OCT 29 2014


NOTE: "FAIR" INDICATES FEW OR NO CLOUDS BELOW 12,000 FEET WITH NO
SIGNIFICANT WEATHER AND/OR OBSTRUCTIONS TO VISIBILITY. N/A MEANS
CURRENT SKY AND/OR WEATHER CONDITIONS ARE NOT AVAILABLE.

MNZ060>063-068>070-300000-
   Twin Cities Metro

CITY           SKY/WX    TMP DP  RH WIND       PRES   REMARKS
TWIN CITIES    PTCLDY    41  31  67 CALM      30.10S
ST PAUL        PTCLDY    40  31  70 SW3       30.12S
CRYSTAL        PTCLDY    41  31  67 S3        30.09F
LAKEVILLE      CLEAR     39  30  70 CALM      30.10S
EDEN PRAIRIE   CLEAR     40  31  70 SW5       30.09S
SOUTH ST PAUL  PTCLDY    40  31  69 CALM      30.10F
LAKE ELMO      FAIR      37  32  81 SW5       30.11R
$$
MNZ001>005-007-008-013>017-022>024-027-028-300000-
   Northwest Minnesota

CITY           SKY/WX    TMP DP  RH WIND       PRES   REMARKS
BEMIDJI        CLOUDY    35  30  83 S3        30.03S
HALLOCK        MOCLDY    39  30  70 S9        30.01F
ROSEAU         CLOUDY    37  32  81 S3        30.03S
WARROAD        CLOUDY    37  34  87 SW5       30.03F
THIEF RVR FALL CLOUDY    37  30  75 S6        30.04R
CROOKSTON      CLOUDY    39  28  65 S9        30.05R
FOSSTON        CLOUDY    34  30  86 S8        30.04F WCI  27
DETROIT LAKES  MOCLDY    36  32  87 SW5       30.05S
MOORHEAD       CLOUDY    43  30  61 S9        30.05F
PARK RAPIDS    CLOUDY    36  30  79 S8        30.04S
MAHNOMEN       MOCLDY    36  30  78 S7        30.04S
$$
MNZ006-009>011-018-025>026-300000-
   North Central Minnesota

CITY           SKY/WX    TMP DP  RH WIND       PRES   REMARKS
BAUDETTE       CLOUDY    36  33  89 SW5       30.03S
FLAG ISLAND    CLOUDY    37  34  87 CALM      30.01F
INTL FALLS     CLOUDY    36  34  92 W3        30.03S FOG
WASKISH        CLOUDY    37  32  81 CALM      30.03F
BIG FORK       MIX PCPN  37  34  87 CALM      30.04F
LONGVILLE      CLOUDY    36  32  87 CALM      30.04F
GRAND RAPIDS   CLOUDY    36  30  80 S3        30.05S
CRANE LAKE     CLOUDY    36  34  93 CALM      30.05S
ORR            CLOUDY    36  34  93 CALM      30.02S
COOK           CLOUDY    37  36  93 W5        30.04S
WALKER         CLOUDY    35  30  81 CALM      30.03F
$$
MNZ012-019>021-037-300000-
   Northeast Minnesota

CITY           SKY/WX    TMP DP  RH WIND       PRES   REMARKS
DULUTH         CLOUDY    40  32  73 NW6       30.04F
ELY            CLOUDY    37  34  87 W3        30.03S
HIBBING        CLOUDY    38  32  79 W3        30.04F
EVELETH        CLOUDY    36  32  87 W7        30.05S
DULUTH HARBOR  CLOUDY    43  36  75 SW12      30.08R
TWO HARBORS    CLOUDY    45 N/A N/A SW3       30.03F
SILVER BAY     PTCLDY    43  36  75 CALM      30.03S
GRAND MARAIS     N/A     43  34  70 W3        30.04R
G MARAIS ARPRT CLOUDY    36  30  80 CALM      30.01S
$$
MNZ029>031-032-039>041-046>048-054>057-064-300000-
   West Central Minnesota

CITY           SKY/WX    TMP DP  RH WIND       PRES   REMARKS
FERGUS FALLS   CLOUDY    39  27  60 S8        30.06F
WHEATON        MOCLDY    37  30  75 SE8       30.06S
MORRIS         CLOUDY    39  32  75 SE7       30.05F
ALEXANDRIA     CLOUDY    38  31  76 S9        30.08R
ELBOW LAKE     FAIR      37  30  77 S6        30.05F
WADENA         CLOUDY    36  30  80 CALM      30.05S
GLENWOOD       MOCLDY    37  30  75 SW6       30.07S
APPLETON       CLOUDY    41  32  70 SE6       30.05F
BENSON         MOCLDY    39  30  70 S3        30.07F
ORTONVILLE     MOCLDY    43  30  61 SE6       30.04F
MADISON        MOCLDY    48  36  61 CALM      30.05F
WILLMAR        FAIR      43  30  61 CALM      30.09S
$$
MNZ033>034-036-042>043-049>051-058-059-300000-
   Central Minnesota

CITY           SKY/WX    TMP DP  RH WIND       PRES   REMARKS
ST CLOUD       CLOUDY    42  32  67 SW6       30.08F
SAUK CENTRE    FAIR      38  32  78 S5        30.07F
PAYNESVILLE    PTCLDY    37  30  78 S5        30.08F
AITKIN         CLOUDY    39  32  75 CALM      30.05F
PINE RIVER     CLOUDY    36  30  80 S3        30.09S
BRAINERD       CLOUDY    37  31  78 S5        30.07S
STAPLES        CLOUDY    36  30  80 CALM      30.06S
LONG PRAIRIE   CLOUDY    36  32  87 SE5       30.07S
LITTLE FALLS   CLOUDY    37  32  81 S3        30.07F
LITCHFIELD     CLEAR     39  34  81 CALM      30.09F
BUFFALO        MOCLDY    39  32  75 CALM      30.11S
MAPLE LAKE     PTCLDY    40  33  78 CALM      30.10S
$$
MNZ037-044-045-052-053-300000-
   East Central Minnesota

CITY           SKY/WX    TMP DP  RH WIND       PRES   REMARKS
PRINCETON      CLOUDY    41  34  75 SW3       30.09F
MORA           CLOUDY    36  30  80 W6        30.10S
CAMBRIDGE      CLOUDY    41  30  65 CALM      30.07F
RUSH CITY      CLOUDY    38  32  77 CALM      30.09F
MOOSE LAKE     CLOUDY    37  32  81 W3        30.06R
HINCKLEY       CLOUDY    39  34  81 SW7       30.08S
CLOQUET        CLOUDY    37  32  81 SW3       30.06S
MCGREGOR       CLOUDY    36  32  87 SW3       30.07S
$$
MNZ071>073-080-081-089-090-097-098-300000-
   Southwest Minnesota

CITY           SKY/WX    TMP DP  RH WIND       PRES   REMARKS
MONTEVIDEO     MOCLDY    41  34  75 SE3       30.08S
GRANITE FALLS  PTCLDY    44  32  61 CALM      30.08S
CANBY          PTCLDY    47  32  55 CALM      30.05F
MARSHALL       PTCLDY    48  30  49 SW5       30.05S
REDWOOD FALLS  CLEAR     45  29  53 SE6       30.07F
OLIVIA         PTCLDY    43  30  61 CALM      30.06F
PIPESTONE      CLEAR     46  30  53 SW7       30.04S
WINDOM           N/A     48  30  49 CALM      30.06F
WORTHINGTON    CLEAR     46  27  46 SW8       30.06F
JACKSON        CLEAR     46  30  53 S6        30.07F
TRACY          CLEAR     48  31  52 S5        30.06F
SLAYTON        CLEAR     47  29  48 SW6       30.06S
$$
MNZ065>067-074>077-082>085-091>093-300000-
   South Central Minnesota

CITY           SKY/WX    TMP DP  RH WIND       PRES   REMARKS
MANKATO        CLEAR     43  28  56 CALM      30.09F
NEW ULM        CLEAR     45  30  57 CALM      30.08F
ST JAMES       CLEAR     46  30  53 CALM      30.09S
FAIRMONT       CLEAR     48  28  46 S5        30.08F
GLENCOE        CLEAR     42  33  71 CALM      30.10R
FARIBAULT      CLEAR     41  30  65 CALM      30.10S
OWATONNA       CLEAR     41  30  65 CALM      30.10F
WASECA         CLEAR     41  28  60 S3        30.11S
ALBERT LEA     CLEAR     43  32  65 CALM      30.09F
$$
MNZ078>079-086>088-094>096-300000-
   Southeast Minnesota

CITY           SKY/WX    TMP DP  RH WIND       PRES   REMARKS
ROCHESTER      CLEAR     40  31  70 W5        30.11F
RED WING       CLEAR     43  30  61 W5        30.10S
STANTON        CLEAR     41  32  69 CALM      30.10S
DODGE CENTER   CLEAR     41  32  70 CALM      30.10S
WINONA         CLEAR     43  32  65 CALM      30.12S
AUSTIN         CLEAR     43  30  61 W3        30.10F
PRESTON        CLEAR     40  31  69 W3        30.10F
$$
ABBREVIATIONS USED IN REMARKS
   TC - TEMPERATURES IN CELSIUS
  WCI - WIND CHILL INDEX
   HX - HEAT INDEX
  VSB - VISIBILITY
$$



USA.gov is the U.S. government's official web portal to all federal, state and local government web resources and services.